sat.trackr.live / text

‹ back to catalog

HULIANWANG DIGUI-95

NORAD 66003 · 2025-231J

PAYLOAD ACTIVE UNKNOWN

§ Identity

Operator
Country
PRC
Launch date
2025-10-16
Launch site
WSC
Launch vehicle
Mass (kg)
RCS (m²)

External: N2YO · Heavens-Above · Gunter

§ Orbital elements

Epoch: 2026-05-25T00:38:33.654624Z

Period
108.33 min
Inclination
50.0035°
Eccentricity
0.0000879
Mean motion
13.29331666 rev/d
Perigee alt
1,148.6 km
Apogee alt
1,149.9 km
Semi-major
7,527.4 km
B*
3.8231e-5
RAAN
258.4653°
Arg perigee
150.3370°
Mean anomaly
209.7552°
Rev number
2,981

§ Raw data

HULIANWANG DIGUI-951 66003U 25231J   26145.02677841 -.00000106  00000+0  38231-4 0  99992 66003  50.0035 258.4653 0000879 150.3370 209.7552 13.29331666 29816

JSON: /api/v1/satellites/66003 · /tle

For live sub-satellite position, see the globe view (requires WebGL).

§ Visibility from observer

Set your observer location to see the next 7 days of passes ≥ 10°. The values pass through the URL so the page stays shareable.

No JS? Fill the form by hand. The geolocation button needs JavaScript.